This demonstration page uses our WeatherBlox Daily Observations layout. Learn more.

Left ArrowRight Arrow

41.55636, -103.73856

Hourly Observations for November 19, 2019

Temp ( °F °C ) Dew Point ( °F °C ) Humidity (%) Winds ( mph kmh ) Pressure ( in mb ) Visibility ( mi km ) Precip ( " mm )
12:58 am 00:58 Mostly Cloudy 48 8.9 26 -3.5 42 42 SSW 5 7 29.95 1014 10 16.0934 N/A
1:58 am 01:58 Mostly Cloudy 46 7.8 25 -3.9 44 44 SSW 3 6 29.95 1014 10 16.0934 N/A
2:58 am 02:58 Clear 44 6.4 25 -3.9 48 48 SW 5 7 29.96 1015 10 16.0934 N/A
3:58 am 03:58 Mostly Cloudy 36 2.4 26 -3.3 66 66 SSW 8 13 29.96 1015 10 16.0934 N/A
4:58 am 04:58 Cloudy 42 5.7 26 -3.1 54 54 SW 6 9 29.91 1013 10 16.0934 N/A
5:58 am 05:58 Mostly Cloudy 42 5.5 25 -3.9 51 51 N N/A 29.88 1012 10 16.0934 N/A
6:58 am 06:58 Mostly Cloudy 44 6.8 29 -1.8 55 55 SSW 12 19 29.87 1011 10 16.0934 N/A
7:58 am 07:58 Mostly Cloudy 43 6.2 28 -2.1 56 56 W 5 7 29.86 1011 10 16.0934 N/A
8:58 am 08:58 Mostly Cloudy 42 5.5 28 -2.5 57 57 SW 6 9 29.83 1010 10 16.0934 N/A
9:58 am 09:58 Partly Cloudy 45 7.2 26 -3.2 48 48 N N/A 29.81 1010 10 16.0934 N/A
10:58 am 10:58 Clear 45 7.2 25 -3.7 46 46 WNW 7 11 29.83 1010 10 16.0934 N/A
11:58 am 11:58 Mostly Clear 40 4.4 25 -3.8 56 56 SW 6 9 29.84 1010 10 16.0934 N/A
12:58 pm 12:58 Clear 40 4.7 26 -3.6 55 55 W 3 6 29.83 1010 10 16.0934 N/A
1:58 pm 13:58 Sunny 39 3.7 26 -3.5 60 60 SW 7 11 29.83 1010 10 16.0934 N/A
2:58 pm 14:58 Sunny 39 3.8 28 -2.1 66 66 SW 5 7 29.85 1011 10 16.0934 N/A
3:58 pm 15:58 Sunny 49 9.2 29 -1.4 48 48 WSW 3 6 29.84 1010 10 16.0934 N/A
4:58 pm 16:58 Sunny 56 13.3 29 -1.9 35 35 W 3 6 29.78 1009 10 16.0934 N/A
5:58 pm 17:58 Sunny 60 15.6 28 -2.3 29 29 N N/A 29.73 1007 10 16.0934 N/A
8:58 pm 20:58 Sunny 67 19.6 23 -5.2 18 18 SSW 9 15 29.63 1004 10 16.0934 N/A
9:58 pm 21:58 Sunny 64 17.8 24 -4.5 22 22 SSW 13 20 29.63 1004 10 16.0934 N/A
10:58 pm 22:58 Sunny 60 15.4 25 -3.8 27 27 S 13 20 29.64 1004 10 16.0934 N/A
11:58 pm 23:58 Clear 54 12.1 26 -3.1 35 35 S 18 30 29.66 1004 10 16.0934 N/A

Powered by AerisWeather